Location: Drocourt
(49.0571°N, 1.7669°E)
Time: 16:29:28
(UTC+00:00)

Vanguard 1 Rocket - Pass Details

Date: 13 April 2024
Orbit: 651 x 4220 km, 34.3° (Epoch: 19 May)

Event Time Altitude Azimuth Distance (km) Brightness Sun altitude
Rises 20:00:42 0° 221° (SW) 3,602 10.6 -12.5°
Reaches altitude 10° 20:03:16 10° 208° (SSW) 2,945 10.0 -12.9°
Maximum altitude 20:09:12 27° 153° (SSE) 2,614 9.2 -13.7°
Enters shadow 20:15:21 17° 113° (ESE) 3,934 10.0 -14.6°
